Time,TemperatureF,DewpointF,PressureIn,WindDirection,WindDirectionDegrees,WindSpeedMPH,WindSpeedGustMPH,Humidity,HourlyPrecipIn,Conditions,Clouds,dailyrainin,SolarRadiationWatts/m^2,SoftwareType,DateUTC
2013-05-19 00:03:00,60.4,44.2,30.06,NNE,18,2.6,3.5,55,0.00,,,0.00,0.0,WeatherDisplay:10.37,2013-05-19 07:03:00,
2013-05-19 00:08:00,60.3,44.5,30.07,NNE,21,3.5,7.0,56,0.00,,,0.00,0.0,WeatherDisplay:10.37,2013-05-19 07:08:00,
2013-05-19 00:13:00,59.7,44.9,30.07,NE,36,2.2,5.8,58,0.00,,,0.00,0.0,WeatherDisplay:10.37,2013-05-19 07:13:00,
2013-05-19 00:18:00,59.0,44.7,30.07,NNE,33,2.3,3.5,59,0.00,,,0.00,0.0,WeatherDisplay:10.37,2013-05-19 07:18:00,
2013-05-19 00:23:00,58.6,44.8,30.07,NE,36,5.6,5.8,60,0.00,,,0.00,0.0,WeatherDisplay:10.37,2013-05-19 07:23:00,
2013-05-19 00:28:00,57.9,45.0,30.07,NE,41,0.8,2.3,62,0.00,,,0.00,0.0,WeatherDisplay:10.37,2013-05-19 07:28:00,
2013-05-19 00:33:00,57.5,44.6,30.07,West,281,1.7,4.0,62,0.00,,,0.00,0.0,WeatherDisplay:10.37,2013-05-19 07:33:00,
2013-05-19 00:38:00,57.0,44.5,30.07,West,280,0.0,0.0,63,0.00,,,0.00,0.0,WeatherDisplay:10.37,2013-05-19 07:38:00,
2013-05-19 00:43:00,56.7,45.1,30.08,West,281,0.0,0.0,65,0.00,,,0.00,0.0,WeatherDisplay:10.37,2013-05-19 07:43:00,
2013-05-19 00:48:00,56.1,44.9,30.07,West,280,0.0,0.0,66,0.00,,,0.00,0.0,WeatherDisplay:10.37,2013-05-19 07:48:00,
2013-05-19 00:53:00,55.7,44.9,30.08,WNW,288,0.2,3.5,67,0.00,,,0.00,0.0,WeatherDisplay:10.37,2013-05-19 07:53:00,
2013-05-19 00:58:00,55.3,44.9,30.08,WNW,288,1.0,3.5,68,0.00,,,0.00,0.0,WeatherDisplay:10.37,2013-05-19 07:58:00,
2013-05-19 01:03:00,54.9,45.3,30.08,WNW,287,0.2,2.3,70,0.00,,,0.00,0.0,WeatherDisplay:10.37,2013-05-19 08:03:00,
2013-05-19 01:08:00,54.7,45.1,30.08,WNW,290,0.4,2.3,70,0.00,,,0.00,0.0,WeatherDisplay:10.37,2013-05-19 08:08:00,
2013-05-19 01:13:00,54.4,45.2,30.08,WNW,290,1.0,2.3,71,0.00,,,0.00,0.0,WeatherDisplay:10.37,2013-05-19 08:13:00,
2013-05-19 01:18:00,54.5,45.3,30.08,West,280,2.1,3.5,71,0.00,,,0.00,0.0,WeatherDisplay:10.37,2013-05-19 08:18:00,
2013-05-19 01:23:00,54.5,45.3,30.08,WNW,290,1.3,2.3,71,0.00,,,0.00,0.0,WeatherDisplay:10.37,2013-05-19 08:23:00,
2013-05-19 01:28:00,54.5,45.3,30.08,NW,323,1.6,3.5,71,0.00,,,0.00,0.0,WeatherDisplay:10.37,2013-05-19 08:28:00,
2013-05-19 01:33:00,54.3,45.1,30.08,NW,323,0.3,2.0,71,0.00,,,0.00,0.0,WeatherDisplay:10.37,2013-05-19 08:33:00,
2013-05-19 01:38:00,54.3,45.5,30.08,WNW,288,0.6,2.3,72,0.00,,,0.00,0.0,WeatherDisplay:10.37,2013-05-19 08:38:00,
2013-05-19 01:43:00,54.1,45.3,30.08,WNW,289,0.6,2.3,72,0.00,,,0.00,0.0,WeatherDisplay:10.37,2013-05-19 08:43:00,
2013-05-19 01:48:00,53.9,45.4,30.08,WNW,289,0.2,1.2,73,0.00,,,0.00,0.0,WeatherDisplay:10.37,2013-05-19 08:48:00,
2013-05-19 01:53:00,53.8,45.3,30.08,WNW,289,0.2,2.3,73,0.00,,,0.00,0.0,WeatherDisplay:10.37,2013-05-19 08:53:00,
2013-05-19 01:58:00,53.6,45.2,30.08,WNW,288,0.0,1.2,73,0.00,,,0.00,0.0,WeatherDisplay:10.37,2013-05-19 08:58:00,
2013-05-19 02:03:00,53.5,45.1,30.07,NW,304,0.0,0.0,73,0.00,,,0.00,0.0,WeatherDisplay:10.37,2013-05-19 09:03:00,
2013-05-19 02:08:00,53.4,45.0,30.07,NW,304,0.4,1.2,73,0.00,,,0.00,0.0,WeatherDisplay:10.37,2013-05-19 09:08:00,
2013-05-19 02:13:00,53.5,45.1,30.07,WNW,292,0.0,1.2,73,0.00,,,0.00,0.0,WeatherDisplay:10.37,2013-05-19 09:13:00,
2013-05-19 02:18:00,53.5,45.1,30.07,WNW,294,0.5,2.3,73,0.00,,,0.00,0.0,WeatherDisplay:10.37,2013-05-19 09:18:00,
2013-05-19 02:23:00,53.4,45.0,30.07,WNW,294,0.0,0.0,73,0.00,,,0.00,0.0,WeatherDisplay:10.37,2013-05-19 09:23:00,
2013-05-19 02:28:00,53.3,45.2,30.07,WNW,294,0.1,1.2,74,0.00,,,0.00,0.0,WeatherDisplay:10.37,2013-05-19 09:28:00,
2013-05-19 02:33:00,53.6,45.2,30.07,WNW,294,2.0,3.5,73,0.00,,,0.00,0.0,WeatherDisplay:10.37,2013-05-19 09:33:00,
2013-05-19 02:38:00,53.9,45.1,30.07,WNW,294,0.8,3.5,72,0.00,,,0.00,0.0,WeatherDisplay:10.37,2013-05-19 09:38:00,
2013-05-19 02:43:00,54.2,45.0,30.07,WNW,294,0.0,0.0,71,0.00,,,0.00,0.0,WeatherDisplay:10.37,2013-05-19 09:43:00,
2013-05-19 02:48:00,54.2,45.0,30.07,WNW,294,0.7,3.5,71,0.00,,,0.00,0.0,WeatherDisplay:10.37,2013-05-19 09:48:00,
2013-05-19 02:53:00,53.7,44.9,30.08,WNW,294,0.0,0.0,72,0.00,,,0.00,0.0,WeatherDisplay:10.37,2013-05-19 09:53:00,
2013-05-19 02:58:00,53.1,44.7,30.08,WNW,294,0.1,2.3,73,0.00,,,0.00,0.0,WeatherDisplay:10.37,2013-05-19 09:58:00,
2013-05-19 03:03:00,52.7,44.6,30.08,WNW,294,0.0,0.0,74,0.00,,,0.00,0.0,WeatherDisplay:10.37,2013-05-19 10:03:00,
2013-05-19 03:08:00,52.8,44.7,30.08,WNW,294,0.0,0.0,74,0.00,,,0.00,0.0,WeatherDisplay:10.37,2013-05-19 10:08:00,
2013-05-19 03:13:00,53.0,44.9,30.08,WNW,294,0.0,0.0,74,0.00,,,0.00,0.0,WeatherDisplay:10.37,2013-05-19 10:13:00,
2013-05-19 03:18:00,52.6,44.5,30.08,WNW,294,0.8,0.0,74,0.00,,,0.00,0.0,WeatherDisplay:10.37,2013-05-19 10:18:00,
2013-05-19 03:23:00,52.9,44.8,30.08,WNW,294,1.3,2.3,74,0.00,,,0.00,0.0,WeatherDisplay:10.37,2013-05-19 10:23:00,
2013-05-19 03:28:00,53.5,44.7,30.08,WNW,294,0.0,0.0,72,0.00,,,0.00,0.0,WeatherDisplay:10.37,2013-05-19 10:28:00,
2013-05-19 03:33:00,53.5,44.7,30.08,WNW,294,0.0,0.0,72,0.00,,,0.00,0.0,WeatherDisplay:10.37,2013-05-19 10:33:00,
2013-05-19 03:38:00,53.0,44.2,30.08,WNW,294,0.4,1.2,72,0.00,,,0.00,0.0,WeatherDisplay:10.37,2013-05-19 10:38:00,
2013-05-19 03:43:00,52.9,44.5,30.08,WNW,294,0.0,0.0,73,0.00,,,0.00,0.0,WeatherDisplay:10.37,2013-05-19 10:43:00,
2013-05-19 03:48:00,52.4,44.4,30.08,WNW,294,0.0,0.0,74,0.00,,,0.00,0.0,WeatherDisplay:10.37,2013-05-19 10:48:00,
2013-05-19 03:53:00,52.2,44.5,30.08,WNW,294,0.0,0.0,75,0.00,,,0.00,0.0,WeatherDisplay:10.37,2013-05-19 10:53:00,
2013-05-19 03:58:00,52.3,44.6,30.08,WNW,294,0.0,0.0,75,0.00,,,0.00,0.0,WeatherDisplay:10.37,2013-05-19 10:58:00,
2013-05-19 04:03:00,52.2,44.5,30.08,WNW,294,0.0,1.2,75,0.00,,,0.00,0.0,WeatherDisplay:10.37,2013-05-19 11:03:00,
2013-05-19 04:08:00,52.1,44.4,30.08,WNW,294,0.0,0.0,75,0.00,,,0.00,0.0,WeatherDisplay:10.37,2013-05-19 11:08:00,
2013-05-19 04:13:00,51.7,44.4,30.08,WNW,294,0.0,0.0,76,0.00,,,0.00,0.0,WeatherDisplay:10.37,2013-05-19 11:13:00,
2013-05-19 04:18:00,51.5,44.2,30.09,WNW,294,0.0,0.0,76,0.00,,,0.00,0.0,WeatherDisplay:10.37,2013-05-19 11:18:00,
2013-05-19 04:23:00,51.3,44.0,30.08,WNW,294,0.0,0.0,76,0.00,,,0.00,0.0,WeatherDisplay:10.37,2013-05-19 11:23:00,
2013-05-19 04:28:00,51.3,44.3,30.08,WNW,294,0.0,0.0,77,0.00,,,0.00,0.0,WeatherDisplay:10.37,2013-05-19 11:28:00,
2013-05-19 04:33:00,51.0,44.0,30.08,WNW,294,0.0,0.0,77,0.00,,,0.00,0.0,WeatherDisplay:10.37,2013-05-19 11:33:00,
2013-05-19 04:38:00,51.3,44.3,30.08,WNW,294,0.0,1.2,77,0.00,,,0.00,0.0,WeatherDisplay:10.37,2013-05-19 11:38:00,
2013-05-19 04:43:00,51.2,44.2,30.08,WNW,294,0.0,0.0,77,0.00,,,0.00,0.0,WeatherDisplay:10.37,2013-05-19 11:43:00,
2013-05-19 04:48:00,50.9,43.9,30.09,WNW,294,0.0,0.0,77,0.00,,,0.00,0.0,WeatherDisplay:10.37,2013-05-19 11:48:00,
2013-05-19 04:53:00,50.6,44.0,30.09,WNW,294,0.0,0.0,78,0.00,,,0.00,0.0,WeatherDisplay:10.37,2013-05-19 11:53:00,
2013-05-19 04:58:00,50.3,43.7,30.09,WNW,294,0.0,0.0,78,0.00,,,0.00,0.0,WeatherDisplay:10.37,2013-05-19 11:58:00,
2013-05-19 05:03:00,50.3,44.0,30.09,WNW,294,0.0,0.0,79,0.00,,,0.00,0.0,WeatherDisplay:10.37,2013-05-19 12:03:00,
2013-05-19 05:08:00,50.1,43.8,30.09,WNW,294,0.0,0.0,79,0.00,,,0.00,0.0,WeatherDisplay:10.37,2013-05-19 12:08:00,
2013-05-19 05:13:00,50.0,43.7,30.09,WNW,294,0.0,0.0,79,0.00,,,0.00,0.0,WeatherDisplay:10.37,2013-05-19 12:13:00,
2013-05-19 05:18:00,49.6,43.4,30.09,WNW,294,0.0,0.0,79,0.00,,,0.00,0.0,WeatherDisplay:10.37,2013-05-19 12:18:00,
2013-05-19 05:23:00,49.4,43.5,30.09,WNW,294,0.0,0.0,80,0.00,,,0.00,0.0,WeatherDisplay:10.37,2013-05-19 12:23:00,
2013-05-19 05:28:00,49.5,43.6,30.09,WNW,294,0.0,0.0,80,0.00,,,0.00,0.0,WeatherDisplay:10.37,2013-05-19 12:28:00,
2013-05-19 05:33:00,49.5,43.6,30.09,WNW,294,0.0,0.0,80,0.00,,,0.00,0.0,WeatherDisplay:10.37,2013-05-19 12:33:00,
2013-05-19 05:38:00,49.4,43.5,30.09,WNW,294,0.0,0.0,80,0.00,,,0.00,0.0,WeatherDisplay:10.37,2013-05-19 12:38:00,
2013-05-19 05:43:00,49.3,43.4,30.09,WNW,294,0.0,0.0,80,0.00,,,0.00,0.0,WeatherDisplay:10.37,2013-05-19 12:43:00,
2013-05-19 05:48:00,49.5,43.9,30.09,WNW,294,0.0,0.0,81,0.00,,,0.00,0.0,WeatherDisplay:10.37,2013-05-19 12:48:00,
2013-05-19 05:53:00,49.7,43.8,30.10,WNW,294,0.0,0.0,80,0.00,,,0.00,0.0,WeatherDisplay:10.37,2013-05-19 12:53:00,
2013-05-19 05:58:00,49.4,43.5,30.10,WNW,294,0.0,0.0,80,0.00,,,0.00,0.0,WeatherDisplay:10.37,2013-05-19 12:58:00,
2013-05-19 06:03:00,49.2,43.6,30.10,WNW,294,0.0,0.0,81,0.00,,,0.00,7.0,WeatherDisplay:10.37,2013-05-19 13:03:00,
2013-05-19 06:08:00,49.2,43.6,30.10,WNW,294,0.0,0.0,81,0.00,,,0.00,11.0,WeatherDisplay:10.37,2013-05-19 13:08:00,
2013-05-19 06:13:00,49.3,43.7,30.10,WNW,294,0.0,0.0,81,0.00,,,0.00,14.0,WeatherDisplay:10.37,2013-05-19 13:13:00,
2013-05-19 06:18:00,49.3,43.7,30.10,WNW,294,0.0,0.0,81,0.00,,,0.00,18.0,WeatherDisplay:10.37,2013-05-19 13:18:00,
2013-05-19 06:23:00,49.4,43.8,30.10,WNW,294,0.0,0.0,81,0.00,,,0.00,21.0,WeatherDisplay:10.37,2013-05-19 13:23:00,
2013-05-19 06:28:00,49.7,44.1,30.10,WNW,294,0.0,0.0,81,0.00,,,0.00,28.0,WeatherDisplay:10.37,2013-05-19 13:28:00,
2013-05-19 06:33:00,49.9,44.3,30.10,WNW,294,0.0,0.0,81,0.00,CLR,,0.00,37.0,WeatherDisplay:10.37,2013-05-19 13:33:00,
2013-05-19 06:38:00,50.1,44.2,30.10,WNW,294,0.0,0.0,80,0.00,CLR,,0.00,46.0,WeatherDisplay:10.37,2013-05-19 13:38:00,
2013-05-19 06:43:00,50.3,44.4,30.10,WNW,294,0.0,0.0,80,0.00,CLR,,0.00,58.0,WeatherDisplay:10.37,2013-05-19 13:43:00,
2013-05-19 06:48:00,50.8,44.9,30.10,WNW,294,0.0,0.0,80,0.00,CLR,,0.00,74.0,WeatherDisplay:10.37,2013-05-19 13:48:00,
2013-05-19 06:53:00,51.3,45.0,30.10,WNW,294,0.0,0.0,79,0.00,CLR,,0.00,93.0,WeatherDisplay:10.37,2013-05-19 13:53:00,
2013-05-19 06:58:00,52.0,45.4,30.10,WNW,294,0.0,0.0,78,0.00,CLR,,0.00,111.0,WeatherDisplay:10.37,2013-05-19 13:58:00,
2013-05-19 07:03:00,52.3,45.6,30.10,WNW,294,0.0,0.0,78,0.00,CLR,,0.00,127.0,WeatherDisplay:10.37,2013-05-19 14:03:00,
2013-05-19 07:08:00,52.7,46.0,30.10,WNW,294,0.6,2.3,78,0.00,CLR,,0.00,144.0,WeatherDisplay:10.37,2013-05-19 14:08:00,
2013-05-19 07:13:00,53.3,45.9,30.10,WNW,299,0.0,0.0,76,0.00,CLR,,0.00,165.0,WeatherDisplay:10.37,2013-05-19 14:13:00,
2013-05-19 07:18:00,53.8,46.4,30.10,WNW,299,0.6,2.3,76,0.00,CLR,,0.00,186.0,WeatherDisplay:10.37,2013-05-19 14:18:00,
2013-05-19 07:23:00,54.4,46.6,30.10,WNW,299,0.1,1.2,75,0.00,CLR,,0.00,202.0,WeatherDisplay:10.37,2013-05-19 14:23:00,
2013-05-19 07:28:00,54.7,46.6,30.10,WNW,299,0.0,0.0,74,0.00,CLR,,0.00,221.0,WeatherDisplay:10.37,2013-05-19 14:28:00,
2013-05-19 07:33:00,55.1,47.0,30.10,WNW,299,0.5,1.2,74,0.00,CLR,,0.00,239.0,WeatherDisplay:10.37,2013-05-19 14:33:00,
2013-05-19 07:38:00,56.2,46.9,30.10,WNW,299,1.3,2.3,71,0.00,CLR,,0.00,255.0,WeatherDisplay:10.37,2013-05-19 14:38:00,
2013-05-19 07:43:00,57.0,47.3,30.10,WNW,299,1.3,2.3,70,0.00,CLR,,0.00,272.0,WeatherDisplay:10.37,2013-05-19 14:43:00,
2013-05-19 07:48:00,57.0,46.5,30.10,WNW,299,0.5,2.3,68,0.00,CLR,,0.00,288.0,WeatherDisplay:10.37,2013-05-19 14:48:00,
2013-05-19 07:53:00,57.9,46.6,30.10,WNW,299,0.0,0.0,66,0.00,CLR,,0.00,309.0,WeatherDisplay:10.37,2013-05-19 14:53:00,
2013-05-19 07:58:00,58.7,47.0,30.10,WNW,299,0.0,0.0,65,0.00,CLR,,0.00,327.0,WeatherDisplay:10.37,2013-05-19 14:58:00,
2013-05-19 08:03:00,59.0,47.2,30.10,WNW,299,0.0,0.0,65,0.00,CLR,,0.00,343.0,WeatherDisplay:10.37,2013-05-19 15:03:00,
2013-05-19 08:08:00,59.2,47.4,30.10,WNW,299,0.5,1.2,65,0.00,CLR,,0.00,357.0,WeatherDisplay:10.37,2013-05-19 15:08:00,
2013-05-19 08:13:00,59.2,47.8,30.10,WNW,299,0.0,1.2,66,0.00,CLR,,0.00,378.0,WeatherDisplay:10.37,2013-05-19 15:13:00,
2013-05-19 08:21:00,60.2,48.8,30.10,WNW,293,0.0,1.0,66,0.00,CLR,,0.00,403.0,WeatherDisplay:10.37,2013-05-19 15:21:00,
2013-05-19 08:26:00,61.0,48.7,30.10,WNW,299,0.0,3.0,64,0.00,CLR,,0.00,420.0,WeatherDisplay:10.37,2013-05-19 15:26:00,
2013-05-19 08:32:00,61.3,48.2,30.10,NW,317,0.5,1.2,62,0.00,CLR,,0.00,441.0,WeatherDisplay:10.37,2013-05-19 15:32:00,
2013-05-19 08:37:00,61.3,47.3,30.10,NW,317,0.0,1.2,60,0.00,CLR,,0.00,461.0,WeatherDisplay:10.37,2013-05-19 15:37:00,
2013-05-19 08:42:00,62.4,48.3,30.10,NNW,329,1.9,3.5,60,0.00,CLR,,0.00,478.0,WeatherDisplay:10.37,2013-05-19 15:42:00,
2013-05-19 08:47:00,62.9,48.8,30.10,NNW,330,0.6,1.2,60,0.00,CLR,,0.00,496.0,WeatherDisplay:10.37,2013-05-19 15:47:00,
2013-05-19 08:52:00,62.7,47.7,30.10,NNW,330,0.1,0.0,58,0.00,CLR,,0.00,513.0,WeatherDisplay:10.37,2013-05-19 15:52:00,
2013-05-19 08:57:00,63.3,49.2,30.10,NNW,330,0.1,1.2,60,0.00,CLR,,0.00,527.0,WeatherDisplay:10.37,2013-05-19 15:57:00,
2013-05-19 09:02:00,64.2,49.1,30.09,North,360,1.3,3.5,58,0.00,CLR,,0.00,543.0,WeatherDisplay:10.37,2013-05-19 16:02:00,
2013-05-19 09:07:00,63.8,48.3,30.09,North,360,0.0,0.0,57,0.00,CLR,,0.00,561.0,WeatherDisplay:10.37,2013-05-19 16:07:00,
2013-05-19 09:12:00,64.2,48.6,30.09,North,360,0.6,2.3,57,0.00,CLR,,0.00,577.0,WeatherDisplay:10.37,2013-05-19 16:12:00,
2013-05-19 09:17:00,64.9,50.2,30.09,NNE,12,0.7,2.3,59,0.00,CLR,,0.00,594.0,WeatherDisplay:10.37,2013-05-19 16:17:00,
2013-05-19 09:22:00,65.7,50.0,30.09,North,11,0.5,2.3,57,0.00,CLR,,0.00,606.0,WeatherDisplay:10.37,2013-05-19 16:22:00,
2013-05-19 09:27:00,66.9,51.2,30.09,NNE,13,0.4,2.3,57,0.00,CLR,,0.00,622.0,WeatherDisplay:10.37,2013-05-19 16:27:00,
2013-05-19 09:32:00,66.9,50.2,30.09,NNE,14,0.7,2.3,55,0.00,CLR,,0.00,640.0,WeatherDisplay:10.37,2013-05-19 16:32:00,
2013-05-19 09:37:00,66.8,51.1,30.09,NNE,24,1.7,3.5,57,0.00,CLR,,0.00,657.0,WeatherDisplay:10.37,2013-05-19 16:37:00,
2013-05-19 09:42:00,66.4,50.7,30.09,NNE,24,0.9,2.3,57,0.00,CLR,,0.00,671.0,WeatherDisplay:10.37,2013-05-19 16:42:00,
2013-05-19 09:47:00,67.2,51.9,30.09,NNE,29,0.3,2.3,58,0.00,CLR,,0.00,686.0,WeatherDisplay:10.37,2013-05-19 16:47:00,
2013-05-19 09:52:00,67.6,51.3,30.09,NE,37,1.0,2.3,56,0.00,CLR,,0.00,701.0,WeatherDisplay:10.37,2013-05-19 16:52:00,
2013-05-19 09:57:00,68.2,51.9,30.09,NE,37,2.1,3.5,56,0.00,CLR,,0.00,714.0,WeatherDisplay:10.37,2013-05-19 16:57:00,
2013-05-19 10:02:00,68.1,52.8,30.09,NE,45,0.8,2.3,58,0.00,CLR,,0.00,728.0,WeatherDisplay:10.37,2013-05-19 17:02:00,
2013-05-19 10:07:00,68.3,52.5,30.09,NE,45,0.7,1.2,57,0.00,CLR,,0.00,740.0,WeatherDisplay:10.37,2013-05-19 17:07:00,
2013-05-19 10:12:00,68.7,52.4,30.09,NE,44,2.0,3.5,56,0.00,CLR,,0.00,754.0,WeatherDisplay:10.37,2013-05-19 17:12:00,
2013-05-19 10:17:00,69.7,52.3,30.09,NE,44,1.4,3.5,54,0.00,CLR,,0.00,766.0,WeatherDisplay:10.37,2013-05-19 17:17:00,
2013-05-19 10:22:00,70.6,52.6,30.09,NE,44,0.9,2.3,53,0.00,CLR,,0.00,782.0,WeatherDisplay:10.37,2013-05-19 17:22:00,
2013-05-19 10:27:00,71.0,52.0,30.08,NE,44,0.4,2.3,51,0.00,CLR,,0.00,796.0,WeatherDisplay:10.37,2013-05-19 17:27:00,
2013-05-19 10:32:00,71.3,51.7,30.08,NE,44,0.6,2.3,50,0.00,CLR,,0.00,809.0,WeatherDisplay:10.37,2013-05-19 17:32:00,
2013-05-19 10:37:00,72.0,51.8,30.08,NE,44,1.2,2.3,49,0.00,CLR,,0.00,823.0,WeatherDisplay:10.37,2013-05-19 17:37:00,
2013-05-19 10:42:00,70.7,51.1,30.08,NE,44,0.1,1.2,50,0.00,CLR,,0.00,835.0,WeatherDisplay:10.37,2013-05-19 17:42:00,
2013-05-19 10:47:00,72.1,51.3,30.08,NE,47,0.1,3.5,48,0.00,CLR,,0.00,846.0,WeatherDisplay:10.37,2013-05-19 17:47:00,
2013-05-19 10:52:00,72.4,51.0,30.08,NE,47,0.1,0.0,47,0.00,CLR,,0.00,858.0,WeatherDisplay:10.37,2013-05-19 17:52:00,
2013-05-19 10:57:00,73.2,51.2,30.08,NE,48,3.5,4.6,46,0.00,CLR,,0.00,870.0,WeatherDisplay:10.37,2013-05-19 17:57:00,
2013-05-19 11:02:00,74.7,51.9,30.08,NE,47,0.6,2.3,45,0.00,CLR,,0.00,881.0,WeatherDisplay:10.37,2013-05-19 18:02:00,
2013-05-19 11:07:00,74.2,51.5,30.07,NE,46,1.9,3.5,45,0.00,CLR,,0.00,893.0,WeatherDisplay:10.37,2013-05-19 18:07:00,
2013-05-19 11:12:00,74.8,52.0,30.07,NE,48,1.0,2.3,45,0.00,CLR,,0.00,904.0,WeatherDisplay:10.37,2013-05-19 18:12:00,
2013-05-19 11:17:00,74.6,51.9,30.07,NE,45,1.0,3.5,45,0.00,CLR,,0.00,912.0,WeatherDisplay:10.37,2013-05-19 18:17:00,
2013-05-19 11:22:00,74.0,51.9,30.07,ENE,64,2.1,4.6,46,0.00,CLR,,0.00,921.0,WeatherDisplay:10.37,2013-05-19 18:22:00,
2013-05-19 11:27:00,74.2,51.5,30.07,ENE,64,0.8,2.3,45,0.00,CLR,,0.00,933.0,WeatherDisplay:10.37,2013-05-19 18:27:00,
2013-05-19 11:32:00,74.5,51.8,30.07,ENE,59,0.9,3.5,45,0.00,CLR,,0.00,942.0,WeatherDisplay:10.37,2013-05-19 18:32:00,
2013-05-19 11:37:00,74.9,51.5,30.07,ENE,67,1.1,2.3,44,0.00,CLR,,0.00,946.0,WeatherDisplay:10.37,2013-05-19 18:37:00,
2013-05-19 11:42:00,76.1,51.3,30.07,NE,48,0.9,4.6,42,0.00,CLR,,0.00,954.0,WeatherDisplay:10.37,2013-05-19 18:42:00,
2013-05-19 11:47:00,76.6,51.1,30.07,ENE,58,0.6,2.3,41,0.00,CLR,,0.00,965.0,WeatherDisplay:10.37,2013-05-19 18:47:00,
2013-05-19 11:52:00,77.4,50.5,30.06,NE,49,0.4,2.3,39,0.00,CLR,,0.00,972.0,WeatherDisplay:10.37,2013-05-19 18:52:00,
2013-05-19 11:57:00,76.8,49.3,30.06,ENE,59,3.1,4.6,38,0.00,CLR,,0.00,979.0,WeatherDisplay:10.37,2013-05-19 18:57:00,
2013-05-19 12:02:00,77.3,50.4,30.06,NE,38,2.3,4.6,39,0.00,CLR,,0.00,983.0,WeatherDisplay:10.37,2013-05-19 19:02:00,
2013-05-19 12:07:00,76.8,50.6,30.06,NE,52,1.2,3.5,40,0.00,CLR,,0.00,988.0,WeatherDisplay:10.37,2013-05-19 19:07:00,
2013-05-19 12:12:00,76.3,48.8,30.06,ENE,61,1.1,2.3,38,0.00,CLR,,0.00,998.0,WeatherDisplay:10.37,2013-05-19 19:12:00,
2013-05-19 12:17:00,77.3,49.7,30.06,NE,44,1.2,3.5,38,0.00,CLR,,0.00,1004.0,WeatherDisplay:10.37,2013-05-19 19:17:00,
2013-05-19 12:22:00,77.7,50.1,30.05,ENE,57,1.7,3.5,38,0.00,CLR,,0.00,1005.0,WeatherDisplay:10.37,2013-05-19 19:22:00,
2013-05-19 12:27:00,77.2,48.9,30.05,ENE,57,1.0,3.5,37,0.00,CLR,,0.00,1011.0,WeatherDisplay:10.37,2013-05-19 19:27:00,
2013-05-19 12:32:00,78.0,48.9,30.05,ENE,57,3.1,4.6,36,0.00,CLR,,0.00,1013.0,WeatherDisplay:10.37,2013-05-19 19:32:00,
2013-05-19 12:37:00,78.4,49.2,30.05,East,84,1.4,3.5,36,0.00,CLR,,0.00,1014.0,WeatherDisplay:10.37,2013-05-19 19:37:00,
2013-05-19 12:42:00,77.9,48.0,30.05,East,84,1.8,4.6,35,0.00,CLR,,0.00,1013.0,WeatherDisplay:10.37,2013-05-19 19:42:00,
2013-05-19 12:47:00,78.2,51.2,30.04,South,179,3.5,6.9,39,0.00,CLR,,0.00,1014.0,WeatherDisplay:10.37,2013-05-19 19:47:00,
2013-05-19 12:52:00,76.7,49.9,30.04,ESE,119,3.1,6.9,39,0.00,CLR,,0.00,1016.0,WeatherDisplay:10.37,2013-05-19 19:52:00,
2013-05-19 12:57:00,76.3,50.2,30.04,SSW,200,3.2,5.8,40,0.00,CLR,,0.00,1016.0,WeatherDisplay:10.37,2013-05-19 19:57:00,
2013-05-19 13:02:00,76.2,50.1,30.04,South,188,4.6,8.1,40,0.00,CLR,,0.00,1011.0,WeatherDisplay:10.37,2013-05-19 20:02:00,
2013-05-19 13:07:00,76.7,49.2,30.03,SSW,200,6.0,6.9,38,0.00,CLR,,0.00,1011.0,WeatherDisplay:10.37,2013-05-19 20:07:00,
2013-05-19 13:12:00,76.9,50.7,30.03,SSW,194,1.7,2.3,40,0.00,CLR,,0.00,1011.0,WeatherDisplay:10.37,2013-05-19 20:12:00,
2013-05-19 13:17:00,77.5,49.2,30.03,SSW,192,4.2,8.1,37,0.00,CLR,,0.00,1013.0,WeatherDisplay:10.37,2013-05-19 20:17:00,
2013-05-19 13:22:00,77.0,49.4,30.02,South,180,4.8,10.4,38,0.00,CLR,,0.00,1007.0,WeatherDisplay:10.37,2013-05-19 20:22:00,
2013-05-19 13:27:00,77.0,49.4,30.02,ESE,119,3.1,6.9,38,0.00,CLR,,0.00,1004.0,WeatherDisplay:10.37,2013-05-19 20:27:00,
2013-05-19 13:32:00,78.2,50.5,30.02,SSW,193,2.4,7.0,38,0.00,CLR,,0.00,1002.0,WeatherDisplay:10.37,2013-05-19 20:32:00,
2013-05-19 13:37:00,77.9,49.5,30.02,South,191,5.3,8.1,37,0.00,CLR,,0.00,1004.0,WeatherDisplay:10.37,2013-05-19 20:37:00,
2013-05-19 13:42:00,77.7,49.3,30.02,SE,138,2.6,4.6,37,0.00,CLR,,0.00,1000.0,WeatherDisplay:10.37,2013-05-19 20:42:00,
2013-05-19 13:47:00,78.1,49.7,30.01,SSW,200,6.3,9.2,37,0.00,CLR,,0.00,997.0,WeatherDisplay:10.37,2013-05-19 20:47:00,
2013-05-19 13:52:00,77.9,50.2,30.01,South,176,3.7,5.0,38,0.00,CLR,,0.00,991.0,WeatherDisplay:10.37,2013-05-19 20:52:00,
2013-05-19 13:57:00,77.6,50.0,30.01,South,186,9.5,15.0,38,0.00,CLR,,0.00,986.0,WeatherDisplay:10.37,2013-05-19 20:57:00,
2013-05-19 14:02:00,76.9,50.1,30.01,SSW,213,7.0,10.4,39,0.00,CLR,,0.00,979.0,WeatherDisplay:10.37,2013-05-19 21:02:00,
2013-05-19 14:07:00,76.9,50.1,30.01,SSW,211,7.0,10.4,39,0.00,CLR,,0.00,977.0,WeatherDisplay:10.37,2013-05-19 21:07:00,
2013-05-19 14:12:00,77.0,49.4,30.01,South,190,6.7,12.7,38,0.00,CLR,,0.00,972.0,WeatherDisplay:10.37,2013-05-19 21:12:00,
2013-05-19 14:17:00,77.8,50.2,30.01,SSW,198,5.3,6.9,38,0.00,CLR,,0.00,965.0,WeatherDisplay:10.37,2013-05-19 21:17:00,
2013-05-19 14:22:00,77.8,50.2,30.01,SSW,197,7.5,11.5,38,0.00,CLR,,0.00,958.0,WeatherDisplay:10.37,2013-05-19 21:22:00,
2013-05-19 14:27:00,77.7,50.1,30.01,SSW,192,6.3,10.4,38,0.00,CLR,,0.00,949.0,WeatherDisplay:10.37,2013-05-19 21:27:00,
2013-05-19 14:32:00,77.9,49.5,30.01,South,169,7.4,12.7,37,0.00,CLR,,0.00,946.0,WeatherDisplay:10.37,2013-05-19 21:32:00,
2013-05-19 14:37:00,77.9,49.5,30.00,SSW,193,7.3,16.1,37,0.00,CLR,,0.00,939.0,WeatherDisplay:10.37,2013-05-19 21:37:00,
2013-05-19 14:42:00,77.9,49.5,30.00,South,179,6.9,12.7,37,0.00,CLR,,0.00,930.0,WeatherDisplay:10.37,2013-05-19 21:42:00,
2013-05-19 14:47:00,77.7,48.6,30.00,SSW,195,9.5,12.7,36,0.00,CLR,,0.00,923.0,WeatherDisplay:10.37,2013-05-19 21:47:00,
2013-05-19 14:52:00,77.8,48.7,30.00,SSW,196,6.1,6.9,36,0.00,CLR,,0.00,911.0,WeatherDisplay:10.37,2013-05-19 21:52:00,
2013-05-19 14:57:00,77.7,48.6,30.00,South,169,6.5,11.5,36,0.00,CLR,,0.00,898.0,WeatherDisplay:10.37,2013-05-19 21:57:00,
2013-05-19 15:02:00,77.8,48.7,30.00,SSW,198,7.8,10.4,36,0.00,CLR,,0.00,896.0,WeatherDisplay:10.37,2013-05-19 22:02:00,
2013-05-19 15:07:00,77.7,49.3,29.99,South,191,7.6,10.4,37,0.00,CLR,,0.00,882.0,WeatherDisplay:10.37,2013-05-19 22:07:00,
2013-05-19 15:12:00,77.7,49.3,29.99,SSW,201,6.0,6.9,37,0.00,CLR,,0.00,874.0,WeatherDisplay:10.37,2013-05-19 22:12:00,
2013-05-19 15:17:00,77.8,50.2,29.99,SSW,197,0.7,3.5,38,0.00,CLR,,0.00,863.0,WeatherDisplay:10.37,2013-05-19 22:17:00,
2013-05-19 15:22:00,79.1,51.3,29.99,SSW,199,1.6,6.9,38,0.00,CLR,,0.00,853.0,WeatherDisplay:10.37,2013-05-19 22:22:00,
2013-05-19 15:28:00,78.8,51.0,29.99,SSW,202,4.3,5.8,38,0.00,CLR,,0.00,837.0,WeatherDisplay:10.37,2013-05-19 22:28:00,
2013-05-19 15:33:00,79.0,51.9,29.99,SSE,168,1.8,3.5,39,0.00,CLR,,0.00,824.0,WeatherDisplay:10.37,2013-05-19 22:33:00,
2013-05-19 15:38:00,80.2,52.3,29.99,South,186,3.1,5.8,38,0.00,CLR,,0.00,816.0,WeatherDisplay:10.37,2013-05-19 22:38:00,
2013-05-19 15:43:00,80.8,52.1,29.98,SSW,200,2.9,4.6,37,0.00,CLR,,0.00,810.0,WeatherDisplay:10.37,2013-05-19 22:43:00,
2013-05-19 15:48:00,80.0,51.4,29.98,SSW,196,0.0,1.2,37,0.00,CLR,,0.00,800.0,WeatherDisplay:10.37,2013-05-19 22:48:00,
2013-05-19 15:53:00,81.1,50.1,29.98,West,273,3.4,6.9,34,0.00,CLR,,0.00,789.0,WeatherDisplay:10.37,2013-05-19 22:53:00,
2013-05-19 15:58:00,82.2,51.0,29.98,West,272,3.6,6.9,34,0.00,CLR,,0.00,770.0,WeatherDisplay:10.37,2013-05-19 22:58:00,
2013-05-19 16:03:00,82.2,50.2,29.98,ENE,66,0.8,2.3,33,0.00,CLR,,0.00,756.0,WeatherDisplay:10.37,2013-05-19 23:03:00,
2013-05-19 16:08:00,82.3,49.5,29.98,NNE,25,2.7,4.6,32,0.00,CLR,,0.00,747.0,WeatherDisplay:10.37,2013-05-19 23:08:00,
2013-05-19 16:13:00,82.3,48.6,29.98,NE,35,5.5,10.4,31,0.00,CLR,,0.00,731.0,WeatherDisplay:10.37,2013-05-19 23:13:00,
2013-05-19 16:18:00,82.7,49.8,29.97,NNE,21,5.5,8.1,32,0.00,CLR,,0.00,717.0,WeatherDisplay:10.37,2013-05-19 23:18:00,
2013-05-19 16:23:00,82.3,49.5,29.97,NNE,32,4.6,8.1,32,0.00,CLR,,0.00,701.0,WeatherDisplay:10.37,2013-05-19 23:23:00,
2013-05-19 16:28:00,82.0,48.4,29.97,NE,34,3.6,4.6,31,0.00,CLR,,0.00,687.0,WeatherDisplay:10.37,2013-05-19 23:28:00,
2013-05-19 16:33:00,81.9,48.3,29.97,NE,34,2.6,4.6,31,0.00,CLR,,0.00,673.0,WeatherDisplay:10.37,2013-05-19 23:33:00,
2013-05-19 16:38:00,82.1,48.5,29.97,NNW,348,2.3,3.5,31,0.00,CLR,,0.00,659.0,WeatherDisplay:10.37,2013-05-19 23:38:00,
2013-05-19 16:43:00,82.4,47.8,29.97,NW,319,3.4,6.9,30,0.00,CLR,,0.00,643.0,WeatherDisplay:10.37,2013-05-19 23:43:00,
2013-05-19 16:48:00,82.8,48.2,29.96,NNE,20,1.1,2.3,30,0.00,CLR,,0.00,628.0,WeatherDisplay:10.37,2013-05-19 23:48:00,
2013-05-19 16:53:00,82.8,48.2,29.96,NNE,26,1.3,3.5,30,0.00,CLR,,0.00,617.0,WeatherDisplay:10.37,2013-05-19 23:53:00,
2013-05-19 16:58:00,83.0,49.2,29.96,NE,44,1.1,2.3,31,0.00,CLR,,0.00,601.0,WeatherDisplay:10.37,2013-05-19 23:58:00,
2013-05-19 17:03:00,83.1,48.5,29.96,NNE,22,2.8,4.6,30,0.00,CLR,,0.00,585.0,WeatherDisplay:10.37,2013-05-20 00:03:00,
2013-05-19 17:08:00,82.5,47.9,29.96,NE,37,2.9,6.9,30,0.00,CLR,,0.00,566.0,WeatherDisplay:10.37,2013-05-20 00:08:00,
2013-05-19 17:13:00,82.1,47.6,29.96,NNE,15,1.9,3.5,30,0.00,CLR,,0.00,547.0,WeatherDisplay:10.37,2013-05-20 00:13:00,
2013-05-19 17:18:00,82.1,48.5,29.96,NE,39,2.2,4.6,31,0.00,CLR,,0.00,534.0,WeatherDisplay:10.37,2013-05-20 00:18:00,
2013-05-19 17:23:00,82.1,47.6,29.95,North,355,3.0,3.5,30,0.00,CLR,,0.00,515.0,WeatherDisplay:10.37,2013-05-20 00:23:00,
2013-05-19 17:28:00,81.9,48.3,29.95,North,355,0.0,0.0,31,0.00,CLR,,0.00,497.0,WeatherDisplay:10.37,2013-05-20 00:28:00,
2013-05-19 17:33:00,81.8,48.2,29.95,West,273,1.3,3.5,31,0.00,CLR,,0.00,482.0,WeatherDisplay:10.37,2013-05-20 00:33:00,
2013-05-19 17:38:00,81.4,47.9,29.95,North,360,3.8,6.9,31,0.00,CLR,,0.00,464.0,WeatherDisplay:10.37,2013-05-20 00:38:00,
2013-05-19 17:43:00,81.4,48.7,29.95,North,9,1.1,3.5,32,0.00,CLR,,0.00,448.0,WeatherDisplay:10.37,2013-05-20 00:43:00,
2013-05-19 17:48:00,81.0,49.2,29.95,NNE,18,4.6,5.8,33,0.00,FEW,,0.00,429.0,WeatherDisplay:10.37,2013-05-20 00:48:00,
2013-05-19 17:53:00,80.2,48.5,29.95,NNE,32,3.3,5.8,33,0.00,FEW,,0.00,411.0,WeatherDisplay:10.37,2013-05-20 00:53:00,
2013-05-19 17:58:00,79.9,49.0,29.95,NNE,19,4.0,6.9,34,0.00,FEW,,0.00,394.0,WeatherDisplay:10.37,2013-05-20 00:58:00,
2013-05-19 18:03:00,79.5,48.7,29.95,NE,46,4.6,8.0,34,0.00,FEW,,0.00,378.0,WeatherDisplay:10.37,2013-05-20 01:03:00,
2013-05-19 18:08:00,78.9,48.1,29.95,NNE,23,5.4,5.8,34,0.00,FEW,,0.00,360.0,WeatherDisplay:10.37,2013-05-20 01:08:00,
2013-05-19 18:13:00,78.7,48.0,29.95,NNE,31,4.2,5.8,34,0.00,FEW,,0.00,341.0,WeatherDisplay:10.37,2013-05-20 01:13:00,
2013-05-19 18:18:00,78.4,47.7,29.95,NNE,22,4.6,8.1,34,0.00,FEW,,0.00,320.0,WeatherDisplay:10.37,2013-05-20 01:18:00,
2013-05-19 18:23:00,78.2,48.3,29.95,NNE,29,3.9,4.6,35,0.00,FEW,,0.00,302.0,WeatherDisplay:10.37,2013-05-20 01:23:00,
2013-05-19 18:28:00,77.8,47.9,29.95,NE,34,2.0,9.2,35,0.00,SCT,,0.00,141.0,WeatherDisplay:10.37,2013-05-20 01:28:00,
2013-05-19 18:33:00,77.1,48.1,29.95,NNE,15,2.2,3.5,36,0.00,BKN,,0.00,102.0,WeatherDisplay:10.37,2013-05-20 01:33:00,
2013-05-19 18:38:00,76.3,47.4,29.95,NNE,14,1.0,3.5,36,0.00,SCT,,0.00,174.0,WeatherDisplay:10.37,2013-05-20 01:38:00,
2013-05-19 18:43:00,75.6,47.5,29.95,WSW,253,1.0,3.5,37,0.00,BKN,,0.00,109.0,WeatherDisplay:10.37,2013-05-20 01:43:00,
2013-05-19 18:48:00,75.0,47.0,29.95,NNW,328,0.6,3.5,37,0.00,SCT,,0.00,207.0,WeatherDisplay:10.37,2013-05-20 01:48:00,
2013-05-19 18:53:00,75.0,47.0,29.95,North,5,1.1,2.3,37,0.00,SCT,,0.00,188.0,WeatherDisplay:10.37,2013-05-20 01:53:00,
2013-05-19 18:58:00,74.5,46.5,29.95,NNE,15,1.3,3.5,37,0.00,SCT,,0.00,165.0,WeatherDisplay:10.37,2013-05-20 01:58:00,
2013-05-19 19:03:00,74.0,46.8,29.95,NNE,15,1.0,4.6,38,0.00,SCT,,0.00,141.0,WeatherDisplay:10.37,2013-05-20 02:03:00,
2013-05-19 19:08:00,73.3,46.2,29.95,NNE,15,0.3,2.3,38,0.00,BKN,,0.00,28.0,WeatherDisplay:10.37,2013-05-20 02:08:00,
2013-05-19 19:13:00,72.8,46.4,29.95,NNE,13,0.5,3.5,39,0.00,BKN,,0.00,26.0,WeatherDisplay:10.37,2013-05-20 02:13:00,
2013-05-19 19:18:00,72.2,46.5,29.95,NNE,13,0.3,1.2,40,0.00,BKN,,0.00,25.0,WeatherDisplay:10.37,2013-05-20 02:18:00,
2013-05-19 19:23:00,71.9,46.3,29.94,North,9,0.7,1.2,40,0.00,BKN,,0.00,23.0,WeatherDisplay:10.37,2013-05-20 02:23:00,
2013-05-19 19:28:00,71.7,46.1,29.95,North,5,0.8,2.3,40,0.00,BKN,,0.00,21.0,WeatherDisplay:10.37,2013-05-20 02:28:00,
2013-05-19 19:33:00,71.3,45.7,29.95,NW,314,1.3,3.5,40,0.00,BKN,,0.00,19.0,WeatherDisplay:10.37,2013-05-20 02:33:00,
2013-05-19 19:38:00,71.1,45.5,29.95,NW,309,0.8,2.3,40,0.00,BKN,,0.00,18.0,WeatherDisplay:10.37,2013-05-20 02:38:00,
2013-05-19 19:43:00,70.6,45.7,29.95,WSW,246,0.6,1.2,41,0.00,BKN,,0.00,16.0,WeatherDisplay:10.37,2013-05-20 02:43:00,
2013-05-19 19:48:00,70.3,45.5,29.95,WSW,247,0.2,1.2,41,0.00,BKN,,0.00,14.0,WeatherDisplay:10.37,2013-05-20 02:48:00,
2013-05-19 19:53:00,69.9,45.1,29.95,WSW,246,0.0,1.2,41,0.00,BKN,,0.00,12.0,WeatherDisplay:10.37,2013-05-20 02:53:00,
2013-05-19 19:58:00,69.5,45.4,29.95,West,265,1.0,3.5,42,0.00,BKN,,0.00,11.0,WeatherDisplay:10.37,2013-05-20 02:58:00,
2013-05-19 20:03:00,69.2,45.1,29.95,West,265,0.7,3.5,42,0.00,BKN,,0.00,9.0,WeatherDisplay:10.37,2013-05-20 03:03:00,
2013-05-19 20:08:00,68.8,45.4,29.95,West,265,2.2,3.5,43,0.00,BKN,,0.00,7.0,WeatherDisplay:10.37,2013-05-20 03:08:00,
2013-05-19 20:13:00,68.2,44.8,29.95,West,265,0.3,1.2,43,0.00,BKN,,0.00,5.0,WeatherDisplay:10.37,2013-05-20 03:13:00,
2013-05-19 20:18:00,67.7,44.4,29.95,West,265,0.1,1.2,43,0.00,,,0.00,0.0,WeatherDisplay:10.37,2013-05-20 03:18:00,
2013-05-19 20:23:00,67.6,44.3,29.95,West,265,0.4,1.2,43,0.00,,,0.00,0.0,WeatherDisplay:10.37,2013-05-20 03:23:00,
2013-05-19 20:28:00,67.2,45.1,29.95,West,265,0.1,0.0,45,0.00,,,0.00,0.0,WeatherDisplay:10.37,2013-05-20 03:28:00,
2013-05-19 20:33:00,66.8,45.3,29.95,West,265,0.0,0.0,46,0.00,,,0.00,0.0,WeatherDisplay:10.37,2013-05-20 03:33:00,
2013-05-19 20:38:00,66.4,45.0,29.95,West,265,0.0,0.0,46,0.00,,,0.00,0.0,WeatherDisplay:10.37,2013-05-20 03:38:00,
2013-05-19 20:43:00,66.1,45.3,29.95,West,265,0.0,0.0,47,0.00,,,0.00,0.0,WeatherDisplay:10.37,2013-05-20 03:43:00,
2013-05-19 20:48:00,65.8,45.6,29.95,West,265,0.0,0.0,48,0.00,,,0.00,0.0,WeatherDisplay:10.37,2013-05-20 03:48:00,
2013-05-19 20:53:00,65.4,46.3,29.95,West,265,0.0,0.0,50,0.00,,,0.00,0.0,WeatherDisplay:10.37,2013-05-20 03:53:00,
2013-05-19 20:58:00,64.8,46.8,29.95,West,265,0.1,1.2,52,0.00,,,0.00,0.0,WeatherDisplay:10.37,2013-05-20 03:58:00,
2013-05-19 21:01:00,64.6,47.1,29.95,West,265,0.0,2.3,53,0.00,,,0.00,0.0,WeatherDisplay:10.37,2013-05-20 04:01:00,
2013-05-19 21:04:00,64.4,46.9,29.95,West,265,0.0,0.0,53,0.00,,,0.00,0.0,WeatherDisplay:10.37,2013-05-20 04:04:00,
2013-05-19 21:05:00,64.3,46.8,29.95,West,265,0.0,0.0,53,0.00,,,0.00,0.0,WeatherDisplay:10.37,2013-05-20 04:05:00,
2013-05-19 21:06:00,64.3,46.8,29.95,West,265,0.0,0.0,53,0.00,,,0.00,0.0,WeatherDisplay:10.37,2013-05-20 04:06:00,
2013-05-19 21:11:00,64.1,46.6,29.95,West,265,0.0,0.0,53,0.00,,,0.00,0.0,WeatherDisplay:10.37,2013-05-20 04:11:00,
2013-05-19 21:16:00,63.6,46.1,29.95,West,265,0.0,0.0,53,0.00,,,0.00,0.0,WeatherDisplay:10.37,2013-05-20 04:16:00,
2013-05-19 21:21:00,63.9,45.4,29.96,West,265,0.0,0.0,51,0.00,,,0.00,0.0,WeatherDisplay:10.37,2013-05-20 04:21:00,
2013-05-19 21:26:00,63.8,45.3,29.96,West,265,0.1,1.2,51,0.00,,,0.00,0.0,WeatherDisplay:10.37,2013-05-20 04:26:00,
2013-05-19 21:31:00,63.9,45.4,29.96,West,265,0.3,0.0,51,0.00,,,0.00,0.0,WeatherDisplay:10.37,2013-05-20 04:31:00,
2013-05-19 21:36:00,63.7,45.7,29.96,West,265,0.7,2.3,52,0.00,,,0.00,0.0,WeatherDisplay:10.37,2013-05-20 04:36:00,
2013-05-19 21:41:00,63.3,45.9,29.96,West,265,0.0,0.0,53,0.00,,,0.00,0.0,WeatherDisplay:10.37,2013-05-20 04:41:00,
2013-05-19 21:46:00,62.8,46.4,29.97,West,265,0.0,0.0,55,0.00,,,0.00,0.0,WeatherDisplay:10.37,2013-05-20 04:46:00,
2013-05-19 21:51:00,62.4,46.0,29.97,West,265,0.3,1.2,55,0.00,,,0.00,0.0,WeatherDisplay:10.37,2013-05-20 04:51:00,
2013-05-19 21:56:00,62.4,46.0,29.97,West,265,0.2,1.2,55,0.00,,,0.00,0.0,WeatherDisplay:10.37,2013-05-20 04:56:00,
2013-05-19 22:01:00,62.4,46.0,29.97,West,265,0.0,0.0,55,0.00,,,0.00,0.0,WeatherDisplay:10.37,2013-05-20 05:01:00,
2013-05-19 22:06:00,61.0,45.7,29.97,West,265,0.0,1.2,57,0.00,,,0.00,0.0,WeatherDisplay:10.37,2013-05-20 05:06:00,
2013-05-19 22:11:00,60.6,46.2,29.97,West,265,0.0,1.2,59,0.00,,,0.00,0.0,WeatherDisplay:10.37,2013-05-20 05:11:00,
2013-05-19 22:16:00,60.5,46.1,29.97,West,265,0.5,1.0,59,0.00,,,0.00,0.0,WeatherDisplay:10.37,2013-05-20 05:16:00,
2013-05-19 22:21:00,60.8,46.4,29.97,West,265,0.0,0.0,59,0.00,,,0.00,0.0,WeatherDisplay:10.37,2013-05-20 05:21:00,
2013-05-19 22:26:00,60.1,46.2,29.97,West,265,0.9,0.0,60,0.00,,,0.00,0.0,WeatherDisplay:10.37,2013-05-20 05:26:00,
2013-05-19 22:31:00,59.6,46.1,29.97,West,265,0.4,1.2,61,0.00,,,0.00,0.0,WeatherDisplay:10.37,2013-05-20 05:31:00,
2013-05-19 22:36:00,59.9,46.4,29.97,West,265,0.1,1.2,61,0.00,,,0.00,0.0,WeatherDisplay:10.37,2013-05-20 05:36:00,
2013-05-19 22:41:00,59.6,46.1,29.98,West,265,0.0,0.0,61,0.00,,,0.00,0.0,WeatherDisplay:10.37,2013-05-20 05:41:00,
2013-05-19 22:46:00,59.1,46.5,29.98,West,265,0.3,1.2,63,0.00,,,0.00,0.0,WeatherDisplay:10.37,2013-05-20 05:46:00,
2013-05-19 22:51:00,59.0,47.2,29.98,West,265,0.3,1.2,65,0.00,,,0.00,0.0,WeatherDisplay:10.37,2013-05-20 05:51:00,
2013-05-19 22:56:00,58.8,47.5,29.98,West,265,0.4,1.2,66,0.00,,,0.00,0.0,WeatherDisplay:10.37,2013-05-20 05:56:00,
2013-05-19 23:01:00,58.9,48.4,29.97,West,265,0.0,0.0,68,0.00,,,0.00,0.0,WeatherDisplay:10.37,2013-05-20 06:01:00,
2013-05-19 23:06:00,58.6,47.7,29.97,West,265,0.0,0.0,67,0.00,,,0.00,0.0,WeatherDisplay:10.37,2013-05-20 06:06:00,
2013-05-19 23:11:00,57.8,46.9,29.97,West,265,0.0,0.0,67,0.00,,,0.00,0.0,WeatherDisplay:10.37,2013-05-20 06:11:00,
2013-05-19 23:16:00,57.6,47.5,29.97,West,265,0.0,0.0,69,0.00,,,0.00,0.0,WeatherDisplay:10.37,2013-05-20 06:16:00,
2013-05-19 23:21:00,57.4,46.9,29.97,West,265,0.0,0.0,68,0.00,,,0.00,0.0,WeatherDisplay:10.37,2013-05-20 06:21:00,
2013-05-19 23:26:00,57.0,46.5,29.97,West,265,0.0,0.0,68,0.00,,,0.00,0.0,WeatherDisplay:10.37,2013-05-20 06:26:00,
2013-05-19 23:31:00,57.0,46.9,29.97,West,265,0.0,0.0,69,0.00,,,0.00,0.0,WeatherDisplay:10.37,2013-05-20 06:31:00,
2013-05-19 23:36:00,56.8,46.3,29.97,West,265,0.0,0.0,68,0.00,,,0.00,0.0,WeatherDisplay:10.37,2013-05-20 06:36:00,
2013-05-19 23:41:00,56.8,46.7,29.97,West,265,0.0,0.0,69,0.00,,,0.00,0.0,WeatherDisplay:10.37,2013-05-20 06:41:00,
2013-05-19 23:46:00,57.0,46.5,29.97,West,265,0.0,1.2,68,0.00,,,0.00,0.0,WeatherDisplay:10.37,2013-05-20 06:46:00,
2013-05-19 23:51:00,57.0,46.5,29.97,West,265,0.0,0.0,68,0.00,,,0.00,0.0,WeatherDisplay:10.37,2013-05-20 06:51:00,
2013-05-19 23:56:00,57.5,47.0,29.97,West,265,0.0,1.2,68,0.00,,,0.00,0.0,WeatherDisplay:10.37,2013-05-20 06:56:00,